Wind_Speed
4 2 6 6 11 12 13 18 18 13 8 6 5 7 11 11 12 19 21 22 20 20 18 18 18 17 20 21 18 17 22 26 23 22 11 14 8 10 8 8 10 10 11
8 3 7 8 11 15 17 15 12 18 22 22 21 22 23 24 28 33 28 24 25 21 19 20 21 22 19 23 27 29 32 35 34 31 25 17 17 11 9 5 1 3 5
8 6 8 10 10 14 13 15 20 29 32 35 38 39 38 35 33 30 27 27 23 23 21 19 19 15 14 19 24 28 32 34 40 35 32 34 37 32 25 17 8 6 8
10 12 9 9 12 8 12 18 26 26 27 27 29 30 31 29 30 28 26 26 25 25 22 19 26 32 25 27 28 31 32 33 36 43 44 42 43 43 37 32 21 18 9
11 10 9 9 7 9 21 21 23 25 23 20 22 27 27 29 29 28 24 21 24 31 27 31 32 29 30 34 32 34 30 38 39 42 42 44 48 51 51 41 31 28 22
7 9 8 6 7 26 23 24 27 26 24 22 19 17 21 25 26 23 20 25 33 29 25 30 28 28 33 33 31 32 33 34 31 37 37 41 44 45 48 51 47 43 41
7 8 7 8 29 24 24 25 24 22 19 18 20 25 24 26 23 19 21 24 28 26 27 29 26 26 28 33 35 32 35 31 34 34 34 35 37 42 45 47 50 52 52
7 5 5 25 27 25 22 22 19 20 17 15 17 25 24 25 22 20 24 27 26 28 27 23 26 26 26 28 35 37 36 36 34 37 36 35 41 40 41 44 46 49 52
9 6 11 31 27 26 24 19 19 17 15 14 16 24 25 21 19 22 26 27 27 24 28 29 21 27 23 25 25 31 34 33 34 30 32 33 37 42 41 47 46 45 45
11 10 22 29 25 20 19 21 16 9 8 14 20 25 20 17 23 24 26 25 23 18 26 29 30 28 26 22 25 23 35 34 40 39 36 37 34 41 41 46 45 42 42
15 14 29 27 23 20 18 18 15 14 12 22 23 23 19 21 24 23 23 24 22 18 22 24 24 25 26 26 25 27 31 36 44 47 45 40 36 39 45 40 42 45 42
18 23 31 26 20 16 14 11 10 12 17 24 24 21 25 22 24 25 25 22 21 20 22 23 25 25 26 27 25 29 27 35 40 48 41 35 38 33 38 40 49 49 44
25 32 28 23 19 14 7 7 5 17 24 23 22 24 24 26 28 24 21 20 21 20 21 22 21 21 22 22 25 33 35 31 33 40 38 32 31 35 37 46 46 47 52
33 30 26 20 16 12 4 13 14 22 25 23 19 20 22 23 23 20 15 14 14 14 14 16 16 15 19 24 25 29 34 30 24 25 24 26 28 33 41 41 53 42 46
31 26 22 14 12 4 6 11 16 23 21 21 20 20 22 22 19 14 8 6 7 11 9 13 10 13 9 21 24 26 31 40 30 30 41 23 37 27 35 49 59 41 45
30 24 18 15 13 12 11 9 12 20 19 20 18 16 15 14 13 9 6 4 8 15 18 15 3 9 10 14 26 28 27 39 37 29 35 37 40 37 36 39 49 42 39
28 23 19 18 15 11 9 11 11 17 18 17 13 12 9 7 4 2 2 6 6 6 12 14 5 15 19 21 23 28 22 34 31 25 29 31 31 23 22 25 32 40 44
25 21 19 15 11 11 9 9 9 13 18 15 12 10 9 10 8 10 8 10 8 10 14 13 12 18 15 20 21 21 23 31 33 25 24 30 29 26 30 36 39 39 41
23 20 15 8 3 4 5 6 7 15 18 18 13 7 11 11 6 7 9 12 15 11 13 15 11 26 23 23 16 17 27 26 33 30 32 31 26 26 33 39 44 43 41
21 15 11 8 5 2 2 3 7 17 21 17 14 13 9 4 1 3 6 10 13 12 16 15 12 22 29 25 17 26 30 27 31 28 33 39 30 29 41 50 52 48 48
19 15 12 9 7 6 5 5 8 19 19 17 13 10 6 6 6 9 11 11 14 15 17 19 20 23 27 29 24 21 29 31 36 37 31 37 29 33 44 50 52 48 49
20 18 16 14 11 6 5 6 12 19 20 16 12 10 6 8 9 11 13 12 13 15 18 19 22 24 27 28 32 27 31 35 39 39 35 37 30 36 39 50 51 52 44
23 22 20 18 12 9 9 7 10 13 14 14 11 9 6 5 5 8 10 11 11 15 19 23 26 29 32 36 39 41 41 40 41 43 43 40 41 44 48 45 44 50 63
22 20 19 17 13 11 9 9 11 11 11 11 10 9 8 7 8 9 9 10 12 17 21 24 29 33 38 40 44 45 45 46 49 50 47 37 41 42 49 41 50 62 61
22 20 18 18 17 16 14 12 12 12 11 11 12 13 13 12 13 14 13 15 18 22 27 29 34 37 39 42 45 47 47 51 51 50 45 43 45 53 54 55 60 67 54
23 23 22 21 21 20 19 18 17 16 16 17 18 19 18 17 17 18 20 23 26 28 31 33 37 40 45 47 45 46 48 51 45 43 44 46 48 50 54 59 61 56 55
Wind_Direction
229 215 276 314 321 327 336 346 336 329 342 10 38 91 125 141 126 119 116 123 117 108 105 92 85 72 54 32 32 22 29 27 18 19 33 27 22 36 7 359 335 331 329
207 232 269 306 314 311 356 359 52 73 77 82 91 100 107 113 114 112 114 116 108 104 100 87 73 71 50 57 59 54 49 38 40 42 46 32 28 16 351 344 230 249 273
225 254 272 296 316 332 358 91 93 88 88 90 89 92 99 104 104 107 110 106 112 102 90 73 71 54 69 62 49 52 54 54 57 55 54 52 47 29 24 23 8 280 280
232 247 262 296 328 8 101 106 97 91 85 87 88 93 99 97 100 107 107 103 93 86 91 87 83 69 74 64 59 53 53 52 57 54 55 51 53 52 47 38 28 28 358
233 242 257 319 346 104 120 110 97 88 85 87 90 95 93 95 98 105 101 98 86 100 96 89 78 81 65 64 61 60 59 58 55 50 48 47 46 49 47 56 47 34 23
222 239 269 319 103 124 116 106 95 88 79 80 95 107 106 111 110 107 95 98 99 102 96 70 72 70 68 61 59 53 56 55 52 48 47 45 45 43 43 45 52 48 40
252 250 300 113 125 119 117 109 97 87 78 84 89 102 118 115 114 111 94 106 110 92 78 66 69 70 68 61 62 60 60 57 53 46 48 45 45 43 41 40 40 39 31
243 251 123 137 126 124 119 119 109 93 79 84 99 117 118 116 112 99 104 113 112 82 68 62 67 65 61 67 64 60 57 57 56 54 53 52 47 44 43 41 37 36 24
234 198 141 146 132 122 118 115 116 105 66 85 114 126 126 120 106 99 105 117 115 101 66 71 61 57 64 68 61 55 55 51 49 49 51 52 51 43 45 42 41 36 31
199 164 148 147 141 131 116 102 102 98 75 96 123 134 128 117 105 105 107 116 128 101 71 66 63 58 56 55 54 59 51 47 46 43 38 42 40 40 39 38 39 36 33
160 151 153 149 147 123 113 96 86 75 102 112 122 134 123 106 97 101 112 111 101 92 73 60 49 58 59 52 53 45 40 38 38 38 38 32 33 31 32 28 30 33 26
154 154 152 150 147 138 103 93 86 94 121 123 127 131 117 112 109 109 107 107 86 77 65 50 50 54 54 55 53 42 34 37 35 28 31 34 30 21 15 12 17 14 17
147 152 152 153 157 157 126 112 83 124 137 133 138 134 128 119 118 108 111 89 81 73 59 45 47 45 51 52 46 38 33 30 32 26 33 32 34 27 17 10 1 359 358
148 151 155 158 160 162 74 91 112 128 140 140 141 144 134 131 131 120 101 90 73 49 37 37 47 43 54 40 38 32 35 29 19 33 316 14 17 30 32 21 7 354 351
146 150 152 150 158 139 113 105 117 137 139 142 141 142 144 140 136 146 111 77 31 357 349 19 24 8 38 36 30 30 33 28 16 8 24 346 307 329 348 6 355 340 329
140 138 136 136 136 131 130 105 126 143 144 142 140 133 149 158 160 175 201 257 294 298 304 340 7 336 13 31 27 16 29 23 14 5 8 13 23 333 300 315 328 346 336
140 136 136 130 119 111 123 117 141 149 152 141 127 127 120 144 131 209 17 11 300 328 51 73 15 3 29 43 16 19 18 8 12 11 347 1 9 19 12 336 331 341 349
146 143 138 128 108 90 100 124 131 161 158 146 143 135 140 126 114 107 73 31 11 7 49 75 12 11 28 17 16 7 16 9 5 5 0 2 3 4 344 341 334 339 349
157 159 154 147 141 66 96 122 148 166 157 155 165 163 145 141 110 80 51 31 26 9 20 55 27 3 39 13 6 8 14 6 9 9 356 350 355 354 341 339 337 331 331
173 180 189 206 210 292 319 195 159 166 163 162 164 180 186 178 149 16 6 5 3 1 10 18 18 356 5 15 357 355 354 3 352 347 347 349 348 349 337 341 337 332 330
192 204 219 230 264 267 263 208 178 173 175 178 175 192 223 246 282 307 313 331 338 342 350 351 353 350 353 354 352 344 357 344 334 331 347 345 337 327 331 343 337 330 330
205 220 236 238 249 241 190 165 171 175 184 192 205 226 258 254 277 298 301 314 323 338 349 346 345 341 338 340 341 340 336 332 336 335 335 336 332 332 339 339 336 334 334
220 228 235 240 227 194 168 165 173 177 183 202 218 235 244 258 290 321 327 337 343 338 338 332 332 330 332 332 332 333 331 332 332 332 332 332 327 323 333 341 333 328 325
219 220 218 216 204 193 185 182 184 186 186 197 212 229 250 269 279 296 317 326 324 320 322 324 325 327 326 325 325 325 325 326 326 325 326 325 319 325 324 328 320 326 329
210 210 209 211 213 215 214 212 208 216 231 243 249 256 262 266 277 285 294 299 306 308 309 311 312 314 315 316 315 316 319 323 322 322 323 317 312 307 311 315 322 326 326
219 219 220 220 221 223 224 226 227 235 244 250 253 255 261 270 278 286 290 293 296 301 305 309 313 316 318 319 314 312 314 320 323 326 321 315 317 317 317 318 320 321 309
Height
11002 11001 11002 11001 11001 10999 10995 10991 10986 10981 10976 10973 10971 10970 10971 10974 10977 10980 10983 10983 10984 10985 10986 10987 10987 10985 10982 10978 10974 10969 10965 10963 10959 10955 10953 10951 10946 10943 10942 10940 10939 10938 10937
11003 11003 11003 11002 11001 10998 10996 10991 10987 10982 10978 10976 10974 10973 10974 10976 10979 10983 10985 10987 10988 10989 10989 10990 10989 10988 10984 10981 10977 10973 10970 10965 10961 10958 10954 10951 10946 10944 10941 10939 10938 10937 10937
11003 11003 11003 11003 11001 10999 10996 10993 10991 10987 10985 10984 10982 10981 10982 10983 10986 10987 10989 10992 10991 10992 10993 10993 10991 10989 10986 10984 10980 10977 10973 10971 10966 10961 10956 10951 10947 10942 10939 10937 10937 10936 10936
11003 11003 11004 11003 11001 10999 10997 10996 10993 10992 10990 10989 10990 10989 10990 10990 10992 10993 10994 10995 10997 10997 10996 10995 10993 10992 10989 10987 10983 10981 10978 10973 10970 10965 10960 10955 10951 10947 10943 10940 10938 10936 10935
11004 11004 11005 11004 11001 10999 10999 10997 10997 10996 10995 10994 10995 10995 10995 10995 10997 10998 10999 11000 11000 11000 10999 10998 10997 10995 10993 10990 10987 10983 10979 10976 10972 10968 10963 10959 10955 10952 10948 10944 10941 10939 10936
11005 11006 11005 11004 11002 11001 11001 11000 10999 10999 10999 10998 10998 10998 10999 11000 11000 11002 11003 11003 11005 11004 11002 11001 10999 10997 10995 10993 10989 10985 10982 10979 10974 10971 10966 10962 10958 10955 10952 10948 10945 10941 10938
11005 11006 11005 11005 11004 11003 11003 11003 11003 11002 11002 11002 11002 11001 11001 11002 11003 11004 11005 11006 11007 11007 11006 11004 11002 11001 10999 10995 10992 10988 10985 10982 10979 10975 10970 10966 10962 10959 10954 10950 10947 10944 10940
11006 11007 11007 11006 11005 11006 11006 11006 11006 11006 11005 11005 11005 11005 11005 11005 11005 11006 11007 11008 11009 11010 11009 11007 11005 11003 11000 10998 10995 10992 10989 10985 10982 10979 10974 10970 10967 10963 10959 10954 10950 10946 10944
11006 11007 11007 11008 11007 11008 11009 11009 11009 11009 11007 11007 11007 11007 11008 11008 11008 11008 11009 11010 11011 11011 11011 11008 11007 11005 11002 11000 10997 10996 10993 10989 10986 10982 10978 10975 10971 10968 10964 10959 10955 10950 10947
11006 11007 11008 11009 11009 11011 11012 11012 11012 11012 11010 11008 11008 11010 11011 11011 11012 11012 11012 11013 11013 11014 11012 11010 11009 11007 11005 11003 11001 10999 10997 10993 10990 10986 10983 10978 10974 10971 10967 10962 10957 10954 10951
11005 11007 11009 11011 11012 11014 11015 11015 11015 11014 11012 11011 11012 11014 11015 11015 11015 11015 11016 11016 11016 11016 11014 11013 11011 11009 11007 11005 11003 11001 10999 10996 10993 10989 10987 10983 10979 10975 10970 10964 10961 10957 10953
11005 11007 11011 11013 11016 11017 11017 11017 11017 11016 11016 11015 11016 11017 11017 11018 11018 11019 11019 11019 11018 11017 11015 11014 11012 11010 11009 11006 11005 11003 11002 11000 10996 10990 10984 10977 10973 10971 10967 10963 10958 10956 10952
11006 11010 11013 11016 11018 11020 11020 11019 11018 11018 11019 11019 11018 11019 11020 11022 11022 11023 11023 11022 11020 11018 11017 11016 11015 11013 11011 11008 11005 11003 11002 11001 10996 10985 10974 10965 10959 10960 10959 10959 10955 10953 10949
11009 11013 11016 11019 11021 11022 11023 11021 11019 11019 11021 11021 11022 11023 11023 11024 11025 11025 11024 11023 11022 11020 11019 11018 11016 11014 11011 11008 11006 11004 11004 11000 10994 10988 10983 10962 10966 10957 10953 10954 10958 10956 10950
11013 11016 11020 11022 11024 11025 11025 11024 11022 11023 11024 11025 11025 11025 11026 11026 11027 11027 11026 11024 11023 11020 11019 11019 11017 11014 11010 11007 11005 11005 11005 11002 10995 10985 10974 10971 10971 10967 10952 10952 10954 10950 10946
11016 11020 11023 11025 11026 11026 11027 11027 11026 11027 11027 11028 11028 11028 11028 11028 11029 11028 11028 11027 11025 11021 11017 11019 11016 11012 11010 11006 11006 11005 11003 11001 10993 10979 10971 10971 10964 10956 10966 10961 10956 10952 10946
11019 11022 11024 11026 11028 11029 11029 11029 11030 11031 11030 11031 11032 11031 11032 11031 11031 11031 11032 11028 11025 11023 11020 11019 11016 11013 11011 11009 11005 11004 11003 11001 10997 10985 10973 10969 10966 10968 10968 10967 10961 10949 10938
11022 11025 11026 11028 11029 11030 11030 11031 11031 11032 11033 11033 11033 11033 11033 11033 11032 11032 11033 11030 11026 11021 11021 11018 11016 11014 11010 11007 11004 11002 11001 10999 10995 10988 10980 10973 10969 10967 10962 10956 10955 10943 10934
11023 11025 11027 11028 11028 11029 11030 11031 11031 11031 11032 11033 11033 11034 11034 11034 11033 11032 11031 11030 11026 11021 11019 11019 11015 11014 11010 11006 11002 10999 10996 10994 10992 10989 10983 10976 10969 10963 10958 10952 10945 10938 10928
11025 11026 11027 11028 11029 11029 11029 11029 11029 11031 11031 11032 11032 11034 11034 11033 11032 11031 11029 11027 11026 11023 11020 11018 11016 11012 11008 11005 11002 10997 10993 10989 10986 10983 10979 10974 10966 10960 10953 10946 10937 10927 10918
11025 11026 11027 11027 11028 11028 11027 11027 11027 11029 11031 11031 11032 11033 11033 11032 11031 11029 11028 11026 11024 11021 11019 11016 11014 11011 11008 11003 11000 10995 10990 10984 10981 10978 10975 10968 10961 10952 10944 10937 10928 10919 10912
11024 11025 11025 11025 11026 11026 11026 11025 11026 11028 11029 11030 11031 11031 11030 11029 11029 11027 11025 11024 11022 11019 11017 11015 11013 11010 11005 11002 10996 10992 10988 10982 10975 10970 10967 10962 10954 10944 10936 10930 10921 10912 10903
11022 11022 11023 11023 11024 11024 11024 11025 11025 11026 11027 11029 11029 11028 11028 11027 11026 11025 11023 11021 11020 11018 11015 11012 11009 11007 11002 10996 10992 10987 10982 10978 10973 10967 10962 10955 10947 10938 10930 10923 10917 10909 10899
11018 11019 11020 11021 11022 11022 11022 11023 11024 11025 11026 11026 11025 11025 11024 11024 11023 11022 11021 11020 11019 11016 11013 11011 11007 11002 10997 10993 10986 10982 10977 10972 10966 10960 10955 10950 10940 10930 10922 10916 10908 10899 10889
11015 11016 11018 11019 11020 11020 11020 11021 11021 11022 11022 11022 11022 11022 11022 11022 11021 11020 11019 11018 11016 11014 11011 11007 11003 10998 10995 10990 10984 10977 10971 10966 10960 10954 10947 10941 10934 10925 10915 10907 10899 10888 10879
11014 11014 11015 11016 11018 11018 11019 11019 11018 11018 11019 11019 11019 11020 11019 11019 11017 11016 11015 11014 11012 11009 11005 11002 10998 10993 10989 10984 10978 10973 10967 10960 10954 10948 10940 10933 10927 10919 10909 10898 10889 10880 10870